Regional Weather Roundup
Issued by NWS Sioux Falls, SD

Home | Current Version | Previous Version | Text Only | Print | Product List | Glossary On
Versions: 1 2 3 4 5 6 7 8 9 10 11 12 13 14 15 16 17 18 19 20 21 22 23 24 25 26 27 28 29 30 31 32 33 34 35 36 37 38 39 40 41 42 43 44 45 46 47 48 49 50
000
ASUS43 KFSD 262002
RWRFSD

WEATHER ROUNDUP FOR SE SOUTH DAKOTA/SW MINNESOTA/NW IOWA
NATIONAL WEATHER SERVICE SIOUX FALLS SD
200 PM CST MON JAN 26 2015

NOTE: "FAIR" INDICATES FEW OR NO CLOUDS BELOW 12,000 FEET WITH NO
SIGNIFICANT WEATHER AND OR OBSTRUCTIONS TO VISIBILITY.


SDZ038>040-050-052>070-262100-
SOUTHEAST SOUTH DAKOTA

CITY           SKY/WX    TMP DP  RH WIND       PRES   REMARKS
CHAMBERLAIN    NOT AVBL
HURON          SUNNY     50  37  61 NW16      29.93R
MADISON        FAIR      45  45 100 NW16G24   29.89S
MITCHELL       SUNNY     52  37  56 NW21      29.94S
SIOUX FALLS    MOSUNNY   48  38  68 NW17G25   29.90R
WINNER         FAIR      59  31  34 N17       30.00F
YANKTON        SUNNY     54  36  50 NW17G23   29.93F
$$

MNZ071-072-080-081-089-090-097-098-262100-
SOUTHWEST MINNESOTA

CITY           SKY/WX    TMP DP  RH WIND       PRES   REMARKS
FAIRMONT       PTSUNNY   46  34  61 NW18G25   29.80R
JACKSON        SUNNY     45  36  70 W24       29.82R
LUVERNE        SUNNY     46  37  71 NW17      29.88S
MARSHALL       MOSUNNY   45  34  65 NW22G28   29.84F
MONTEVIDEO     PTSUNNY   45  39  81 N14G30    29.83S
PIPESTONE      SUNNY     43  36  75 NW18G25   29.85S
REDWOOD FALLS  MOSUNNY   44  34  67 NW17G29   29.81R
TRACY          MOSUNNY   46  38  73 NW22G30   29.83S
WINDOM         MOSUNNY   45  37  76 W20G26    29.82R
WORTHINGTON    SUNNY     43  36  75 NW23      29.84F
$$

IAZ001>003-012>014-020>022-031-032-NEZ013-014-SDZ071-262100-
NORTHWEST IOWA

CITY           SKY/WX    TMP DP  RH WIND       PRES   REMARKS
ESTHERVILLE    SUNNY     46  38  73 NW23G30   29.81R
SIOUX CITY     SUNNY     53  39  59 NW20      29.91F
SPENCER        SUNNY     47  38  71 NW21G31   29.85R
$$

ABBREVIATIONS USED IN REMARKS
   TC - TEMPERATURE IN CELSIUS
  WCI - WIND CHILL INDEX
   HX - HEAT INDEX
  VSB - VISIBILITY



USA.gov is the U.S. government's official web portal to all federal, state and local government web resources and services.